| time (UTC) | temp F | wind direction | speed MPH | gust MPH | rain 1hr in | rain 24hr in | rain mn in | humidity % | barometer mb |
| 20260905090635 | 62 | 184 | 1.0 | 8.0 | 0.00 | 0.00 | 0.27 | 97 | 1022.9 |
| 20260905085634 | 61 | 197 | 3.0 | 10.0 | 0.00 | 0.00 | 0.27 | 98 | 1022.8 |
| 20260905084634 | 60 | 63 | 4.0 | 9.0 | 0.00 | 0.00 | 0.27 | 98 | 1022.7 |
| 20260905083633 | 59 | 139 | 3.0 | 9.0 | 0.00 | 0.00 | 0.27 | 99 | 1022.8 |
| 20260905082633 | 58 | 44 | 3.0 | 9.0 | 0.00 | 0.00 | 0.27 | 100 | 1023.0 |
| 20260905080632 | 57 | 128 | 3.0 | 7.0 | 0.00 | 0.00 | 0.27 | 100 | 1022.9 |
| 20260905075632 | 57 | 146 | 2.0 | 7.0 | 0.00 | 0.00 | 0.27 | 100 | 1022.9 |
| 20260905074632 | 57 | 160 | 2.0 | 9.0 | 0.00 | 0.00 | 0.27 | 100 | 1022.7 |
| 20260905073632 | 57 | 163 | 2.0 | 6.0 | 0.00 | 0.00 | 0.27 | 100 | 1022.7 |
| 20260905072631 | 57 | 159 | 2.0 | 5.0 | 0.00 | 0.00 | 0.27 | 100 | 1022.5 |
| 20260905071631 | 56 | 165 | 4.0 | 10.0 | 0.00 | 0.00 | 0.26 | 100 | 1022.7 |
| 20260905070630 | 57 | 205 | 3.0 | 5.0 | 0.00 | 0.00 | 0.26 | 100 | 1022.3 |
| 20260905065630 | 56 | 160 | 4.0 | 7.0 | 0.00 | 0.00 | 0.25 | 100 | 1022.0 |
| 20260905064629 | 57 | 203 | 4.0 | 11.0 | 0.00 | 0.00 | 0.21 | 100 | 1022.1 |
| 20260905061629 | 58 | 0 | 0.0 | 0.0 | 0.00 | 0.00 | 0.14 | 99 | 1022.1 |
| 20260905055628 | 58 | 350 | 2.0 | 5.0 | 0.00 | 0.00 | 0.05 | 97 | 1022.0 |
| 20260905054628 | 59 | 288 | 5.0 | 11.0 | 0.00 | 0.00 | 0.02 | 96 | 1021.8 |
| 20260905053627 | 61 | 307 | 3.0 | 10.0 | 0.00 | 0.00 | 0.01 | 91 | 1021.2 |
| 20260905052627 | 64 | 283 | 5.0 | 15.0 | 0.00 | 0.00 | 0.00 | 80 | 1021.6 |
| 20260905051626 | 65 | 288 | 2.0 | 9.0 | 0.00 | 0.00 | 0.00 | 76 | 1020.2 |
| 20260905050626 | 66 | 314 | 6.0 | 22.0 | 0.00 | 0.00 | 0.00 | 76 | 1020.1 |
| 20260905045625 | 67 | 32 | 3.0 | 9.0 | 0.00 | 0.00 | 0.00 | 81 | 1019.8 |
| 20260905044625 | 67 | 288 | 3.0 | 10.0 | 0.00 | 0.00 | 0.00 | 80 | 1019.4 |
| 20260905043625 | 67 | 288 | 3.0 | 10.0 | 0.00 | 0.00 | 0.00 | 82 | 1019.2 |
| 20260905042624 | 68 | 288 | 2.0 | 8.0 | 0.00 | 0.00 | 0.00 | 81 | 1019.2 |
| 20260905041624 | 68 | 288 | 2.0 | 9.0 | 0.00 | 0.00 | 0.00 | 79 | 1019.0 |
| 20260905040624 | 68 | 309 | 5.0 | 12.0 | 0.00 | 0.00 | 0.00 | 77 | 1018.8 |
| 20260905035624 | 69 | 315 | 4.0 | 10.0 | 0.00 | 0.00 | 0.00 | 77 | 1018.7 |
| 20260905034623 | 69 | 330 | 5.0 | 13.0 | 0.00 | 0.00 | 0.00 | 76 | 1018.5 |
| 20260905033623 | 71 | 288 | 5.0 | 11.0 | 0.00 | 0.00 | 0.00 | 75 | 1018.1 |
| 20260905032622 | 73 | 288 | 2.0 | 9.0 | 0.00 | 0.00 | 0.00 | 73 | 1017.4 |
| 20260905031622 | 73 | 217 | 1.0 | 7.0 | 0.00 | 0.00 | 0.00 | 72 | 1017.5 |
| 20260905030621 | 73 | 207 | 3.0 | 10.0 | 0.00 | 0.00 | 0.00 | 71 | 1017.5 |
| 20260905025621 | 73 | 195 | 2.0 | 8.0 | 0.00 | 0.00 | 0.00 | 70 | 1017.3 |
| 20260905023620 | 74 | 195 | 2.0 | 9.0 | 0.00 | 0.00 | 0.00 | 69 | 1017.2 |
| 20260905022620 | 74 | 194 | 3.0 | 10.0 | 0.00 | 0.00 | 0.00 | 68 | 1017.1 |
| 20260905021620 | 74 | 201 | 3.0 | 7.0 | 0.00 | 0.00 | 0.00 | 68 | 1017.2 |
| 20260905020619 | 74 | 194 | 3.0 | 7.0 | 0.00 | 0.00 | 0.00 | 68 | 1017.1 |
| 20260905015619 | 74 | 118 | 2.0 | 9.0 | 0.00 | 0.00 | 0.00 | 67 | 1017.0 |
| 20260905014619 | 74 | 155 | 1.0 | 5.0 | 0.00 | 0.00 | 0.00 | 67 | 1017.0 |
| 20260905013618 | 75 | 187 | 2.0 | 5.0 | 0.00 | 0.00 | 0.00 | 65 | 1017.0 |
| 20260905012618 | 75 | 288 | 2.0 | 9.0 | 0.00 | 0.00 | 0.00 | 65 | 1016.9 |
| 20260905011618 | 75 | 214 | 2.0 | 7.0 | 0.00 | 0.00 | 0.00 | 64 | 1017.0 |
| 20260905010617 | 76 | 288 | 3.0 | 9.0 | 0.00 | 0.00 | 0.00 | 63 | 1017.0 |
| 20260905005617 | 76 | 207 | 2.0 | 9.0 | 0.00 | 0.00 | 0.00 | 63 | 1016.9 |
| 20260905004616 | 76 | 288 | 3.0 | 10.0 | 0.00 | 0.00 | 0.00 | 62 | 1016.8 |
| 20260905003616 | 76 | 211 | 2.0 | 10.0 | 0.00 | 0.00 | 0.00 | 62 | 1016.7 |
| 20260905002616 | 76 | 204 | 4.0 | 10.0 | 0.00 | 0.00 | 0.00 | 61 | 1016.6 |
| 20260905001615 | 76 | 187 | 4.0 | 10.0 | 0.00 | 0.00 | 0.00 | 61 | 1016.6 |
| 20260905000615 | 77 | 162 | 4.0 | 9.0 | 0.00 | 0.00 | 0.00 | 60 | 1016.5 |
| 20260904235615 | 77 | 176 | 3.0 | 6.0 | 0.00 | 0.00 | 0.00 | 59 | 1016.5 |
| 20260904234614 | 77 | 197 | 3.0 | 7.0 | 0.00 | 0.00 | 0.00 | 59 | 1016.2 |
| 20260904232613 | 77 | 193 | 4.0 | 7.0 | 0.00 | 0.00 | 0.00 | 58 | 1016.4 |
| 20260904231613 | 77 | 198 | 5.0 | 8.0 | 0.00 | 0.00 | 0.00 | 58 | 1016.4 |
| 20260904230613 | 77 | 195 | 4.0 | 9.0 | 0.00 | 0.00 | 0.00 | 58 | 1016.4 |
| 20260904225612 | 77 | 156 | 4.0 | 9.0 | 0.00 | 0.00 | 0.00 | 57 | 1016.2 |
| 20260904224612 | 77 | 156 | 4.0 | 8.0 | 0.00 | 0.00 | 0.00 | 58 | 1016.2 |
| 20260904223612 | 77 | 191 | 4.0 | 9.0 | 0.00 | 0.00 | 0.00 | 58 | 1015.9 |
| 20260904222611 | 76 | 204 | 3.0 | 6.0 | 0.00 | 0.00 | 0.00 | 58 | 1015.9 |
| 20260904221611 | 77 | 156 | 4.0 | 10.0 | 0.00 | 0.00 | 0.00 | 58 | 1015.9 |
| 20260904220610 | 77 | 210 | 4.0 | 8.0 | 0.00 | 0.00 | 0.00 | 57 | 1015.9 |
| 20260904215610 | 77 | 197 | 3.0 | 6.0 | 0.00 | 0.00 | 0.00 | 57 | 1015.8 |
| 20260904213609 | 77 | 148 | 3.0 | 10.0 | 0.00 | 0.00 | 0.00 | 57 | 1015.9 |
| 20260904212609 | 77 | 156 | 3.0 | 7.0 | 0.00 | 0.00 | 0.00 | 57 | 1015.8 |
| 20260904211609 | 77 | 141 | 3.0 | 6.0 | 0.00 | 0.00 | 0.00 | 57 | 1015.9 |
| 20260904210608 | 77 | 142 | 3.0 | 7.0 | 0.00 | 0.00 | 0.00 | 57 | 1015.8 |
| 20260904204608 | 77 | 121 | 2.0 | 6.0 | 0.00 | 0.00 | 0.00 | 57 | 1015.8 |
| 20260904201607 | 78 | 134 | 4.0 | 7.0 | 0.00 | 0.00 | 0.00 | 55 | 1015.8 |
| 20260904200606 | 79 | 200 | 2.0 | 6.0 | 0.00 | 0.00 | 0.00 | 53 | 1015.8 |
| 20260904194605 | 79 | 191 | 2.0 | 4.0 | 0.00 | 0.00 | 0.00 | 51 | 1015.7 |
| 20260904193605 | 80 | 188 | 3.0 | 5.0 | 0.00 | 0.00 | 0.00 | 51 | 1015.7 |
| 20260904191604 | 80 | 208 | 4.0 | 7.0 | 0.00 | 0.00 | 0.00 | 50 | 1015.6 |
| 20260904185603 | 80 | 173 | 3.0 | 7.0 | 0.00 | 0.00 | 0.00 | 50 | 1015.4 |
| 20260904184603 | 80 | 187 | 3.0 | 7.0 | 0.00 | 0.00 | 0.00 | 50 | 1015.3 |
| 20260904183603 | 81 | 197 | 3.0 | 6.0 | 0.00 | 0.00 | 0.00 | 51 | 1015.2 |
| 20260904181602 | 81 | 155 | 3.0 | 8.0 | 0.00 | 0.00 | 0.00 | 51 | 1014.9 |
| 20260904180602 | 81 | 167 | 2.0 | 5.0 | 0.00 | 0.00 | 0.00 | 53 | 1014.8 |
| 20260904175601 | 82 | 153 | 2.0 | 3.0 | 0.00 | 0.00 | 0.00 | 52 | 1014.7 |
| 20260904174601 | 84 | 188 | 2.0 | 5.0 | 0.00 | 0.00 | 0.00 | 50 | 1014.6 |
| 20260904173601 | 85 | 186 | 2.0 | 4.0 | 0.00 | 0.00 | 0.00 | 48 | 1014.4 |
| 20260904172600 | 85 | 221 | 3.0 | 4.0 | 0.00 | 0.00 | 0.00 | 47 | 1014.4 |
| 20260904171600 | 86 | 190 | 4.0 | 7.0 | 0.00 | 0.00 | 0.00 | 46 | 1014.4 |
| 20260904170559 | 87 | 186 | 4.0 | 6.0 | 0.00 | 0.00 | 0.00 | 44 | 1014.5 |
| 20260904165559 | 88 | 212 | 3.0 | 6.0 | 0.00 | 0.00 | 0.00 | 43 | 1014.5 |
| 20260904164559 | 88 | 193 | 3.0 | 5.0 | 0.00 | 0.00 | 0.00 | 42 | 1014.6 |
| 20260904163558 | 89 | 211 | 2.0 | 5.0 | 0.00 | 0.00 | 0.00 | 41 | 1014.6 |
| 20260904162558 | 89 | 200 | 3.0 | 9.0 | 0.00 | 0.00 | 0.00 | 41 | 1014.6 |
| 20260904161558 | 88 | 218 | 3.0 | 7.0 | 0.00 | 0.00 | 0.00 | 42 | 1014.6 |
| 20260904155557 | 88 | 210 | 5.0 | 13.0 | 0.00 | 0.00 | 0.00 | 41 | 1014.8 |
| 20260904154557 | 88 | 197 | 5.0 | 11.0 | 0.00 | 0.00 | 0.00 | 41 | 1014.9 |
| 20260904153556 | 88 | 210 | 5.0 | 10.0 | 0.00 | 0.00 | 0.00 | 40 | 1015.1 |
| 20260904152556 | 88 | 197 | 5.0 | 11.0 | 0.00 | 0.00 | 0.00 | 41 | 1015.2 |
| 20260904151555 | 88 | 184 | 6.0 | 12.0 | 0.00 | 0.00 | 0.00 | 42 | 1015.3 |
| 20260904150555 | 87 | 200 | 5.0 | 14.0 | 0.00 | 0.00 | 0.00 | 42 | 1015.4 |
| 20260904145555 | 87 | 212 | 5.0 | 10.0 | 0.00 | 0.00 | 0.00 | 41 | 1015.4 |
| 20260904144554 | 88 | 214 | 5.0 | 10.0 | 0.00 | 0.00 | 0.00 | 42 | 1015.5 |
| 20260904143554 | 88 | 238 | 4.0 | 10.0 | 0.00 | 0.00 | 0.00 | 41 | 1015.6 |
| 20260904142554 | 88 | 203 | 4.0 | 9.0 | 0.00 | 0.00 | 0.00 | 43 | 1015.8 |
| 20260904141554 | 87 | 193 | 4.0 | 10.0 | 0.00 | 0.00 | 0.00 | 44 | 1015.9 |
| 20260904140553 | 86 | 205 | 8.0 | 14.0 | 0.00 | 0.00 | 0.00 | 44 | 1016.2 |
| 20260904135553 | 86 | 193 | 7.0 | 14.0 | 0.00 | 0.00 | 0.00 | 43 | 1016.4 |
| 20260904134552 | 87 | 183 | 5.0 | 10.0 | 0.00 | 0.00 | 0.00 | 43 | 1016.3 |
| 20260904133552 | 85 | 194 | 7.0 | 14.0 | 0.00 | 0.00 | 0.00 | 45 | 1016.4 |
| 20260904131551 | 85 | 203 | 7.0 | 13.0 | 0.00 | 0.00 | 0.00 | 45 | 1016.8 |
| 20260904130551 | 84 | 203 | 7.0 | 14.0 | 0.00 | 0.00 | 0.00 | 47 | 1017.0 |
| 20260904123550 | 84 | 204 | 6.0 | 12.0 | 0.00 | 0.00 | 0.00 | 48 | 1017.5 |
| 20260904122549 | 84 | 198 | 6.0 | 13.0 | 0.00 | 0.00 | 0.00 | 48 | 1017.7 |
| 20260904121549 | 83 | 204 | 7.0 | 17.0 | 0.00 | 0.00 | 0.00 | 48 | 1017.9 |
| 20260904120549 | 83 | 198 | 7.0 | 15.0 | 0.00 | 0.00 | 0.00 | 49 | 1018.1 |
| 20260904115548 | 82 | 203 | 8.0 | 14.0 | 0.00 | 0.00 | 0.00 | 48 | 1018.2 |
| 20260904112547 | 83 | 195 | 5.0 | 11.0 | 0.00 | 0.00 | 0.00 | 50 | 1018.5 |
| 20260904111547 | 81 | 193 | 6.0 | 13.0 | 0.00 | 0.00 | 0.00 | 52 | 1018.8 |
| 20260904105546 | 80 | 204 | 6.0 | 14.0 | 0.00 | 0.00 | 0.00 | 53 | 1018.9 |
| 20260904103545 | 80 | 201 | 6.0 | 11.0 | 0.00 | 0.00 | 0.00 | 53 | 1019.2 |
| 20260904102545 | 81 | 197 | 5.0 | 10.0 | 0.00 | 0.00 | 0.00 | 54 | 1019.4 |
| 20260904101545 | 80 | 210 | 5.0 | 12.0 | 0.00 | 0.00 | 0.00 | 54 | 1019.7 |
| 20260904100544 | 81 | 208 | 3.0 | 10.0 | 0.00 | 0.00 | 0.00 | 55 | 1019.8 |
| 20260904095544 | 80 | 217 | 4.0 | 8.0 | 0.00 | 0.00 | 0.00 | 55 | 1019.9 |
| 20260904092543 | 79 | 288 | 3.0 | 9.0 | 0.00 | 0.00 | 0.00 | 58 | 1020.2 |